Showing default

OPS 0757 (TACSAT), 3691

Orbit data source: Space-Track

OPS 0757 (TACSAT), 3691 is a payload satellite owned by SAMSO (US) in GEO that was launched on Sun, 09 Feb 1969 UTC via a TITAN IIIC launch vehicle from the Air Force Eastern Test Range (AFETR). Payload-class satellites include a variety of spacecraft equipped with specific instruments for various scientific and technological missions. These include communications satellites like Starlink; space stations such as the ISS; scientific satellites like the Hubble; Earth observation satellites from companies like Planet Labs, Umbra, and HawkEye 360; GPS; miniature CubeSats for education and research; and military/defense satellites.

Not visible in the next 10 days
Identifier
3691, 1969-013A
Orbit
GEO
Country
Flag of USUS
Related business
Manufacturer
Hughes
Mission
Non-operational spacecraft
Bus & Motor
HS-308, Unknown motor
Mass
721 kg wet, ~650 kg dry
Launch date (UTC)
1969-02-09 (57 years ago)
Launch vehicle
TITAN IIIC
Launch site
Air Force Eastern Test Range (AFETR)
Object type
Payload
Rocket body
Debris
Shape & HBR
Unknown
Radar Cross Section
Large (>1 m²)

Expand to show TLE details & history
Last TLE update: 12 hours ago

TLE from 12 hours ago
0 OPS 0757 (TACSAT)
1 03691U 69013A   26170.25076105 -.00000012  00000-0  00000-0 0  9994
2 03691   2.8540  74.4372 0019226 176.0023 104.1538  1.00404803114127
Epoch: 2026-06-19T06:01Z
TLE epoch observation values (Epoch: 2026-06-19T06:01:05.754Z)
Latitude
-2.81486°
Longitude
-2.92025°
Altitude
35,769.087 km
Speed
3.075 km/s
True Right ascension
23h 39m 20s
True Declination
-2° 48' 43"
Sunlit
Object was in daylight at epoch
Visualization orbit readout
Latitude
Unknown
Longitude
Unknown
Altitude
Unknown
Speed
Unknown
Apparent Right ascension
Unknown
Apparent Declination
Unknown
Sunlit
N/A
Visualization observer readout
Local Sidereal Time
05:16:49
Azimuth
Unknown
Elevation
Unknown
Doppler factor
Unknown
Orbital elements
Apogee altitude
35,831.41 km
Perigee altitude
35,669.417 km
Semi-major axis
42,128.551 km
Eccentricity
0.00192
Inclination
2.854°
RAAN
74.4372°
Arg. of periapsis
176.0023°
True anomaly
104.3673°
Mean anomaly
104.1538°
Eccentric anomaly
104.26056°
Mean motion
0.251 °/min
Orbital period
1,434.25 mins
BSTAR
0
Loading maneuver chart data...
Computing Atmospheric mass density...

Documentation

Showing up to 5 results
|